Vertical_Velocity
3 1 0 0 0 -1 -1 -2 -1 0 1 0 -1 -1 1 1 -0 -1 -1 -1 -1 -1 -0 -0 -0 -0 1 0 0 1 0 -1 -3 -0 -2 -0 -1 1 0 -1 0 -2 -1 -1 1
0 0 -0 1 1 1 2 1 -1 -3 -2 1 0 -0 0 -1 -1 -1 -2 0 -0 -0 -0 -0 -1 -0 0 1 1 0 -0 1 -1 -1 -0 0 -0 -0 0 -1 -2 -3 -0 1 -0
2 2 2 0 -1 -1 -1 -0 1 1 -1 -1 -1 0 -0 -0 1 -1 -0 -1 -0 -1 -1 0 -0 -0 -0 1 -0 -0 0 2 0 -0 -0 -0 0 -0 -0 -1 -1 -0 -1 -0 -0
0 -1 -0 -0 -0 1 1 0 -0 -1 -2 -2 -2 -2 -1 1 -2 -0 -0 0 -1 -2 -1 0 0 -1 0 -1 0 -0 1 1 0 -0 0 1 -0 0 0 -2 0 1 2 1 1
0 -0 -1 1 -0 -1 -1 -1 -1 -0 -1 0 -0 -1 -1 -0 1 -1 -1 0 -0 -2 -1 -1 0 0 0 -0 1 0 -0 1 0 0 1 2 2 2 2 -2 2 0 1 2 1
1 1 -1 -1 -1 -2 -2 0 -0 -1 0 0 0 -2 -2 -2 -1 -1 -1 0 -0 -1 0 -0 -0 1 -0 0 1 0 0 0 1 -0 -0 0 1 1 -0 -0 -0 -0 1 1 0
3 1 2 -2 -2 -1 -1 -2 1 1 -2 -0 1 -0 -1 -1 -1 -2 -1 1 -0 -0 0 -0 -0 0 1 -0 0 0 1 -0 0 0 -1 -0 0 -2 -0 1 1 1 -1 -1 0
0 3 -0 1 -1 -1 -0 -2 -1 1 -0 -2 0 1 1 0 -1 -2 -1 1 -1 -1 -0 0 -0 0 2 1 -0 -0 -0 1 -1 0 -0 0 1 -1 0 1 -0 -1 -2 -2 -1
-2 0 4 -0 0 -2 0 -0 -2 -0 0 0 -0 1 -1 1 0 -1 -1 1 -1 -1 -2 -0 -1 -1 0 -0 1 1 0 1 -0 -0 -1 1 4 -0 0 -1 -2 -0 -0 -0 0
3 0 -1 3 1 -0 -0 -0 -1 -0 1 0 1 1 -0 1 1 0 -1 -1 -2 -1 -1 -1 -0 -1 -0 -0 -1 -0 0 0 0 -2 -2 -1 2 2 3 -5 -1 0 -1 -0 -1
-1 2 1 -0 2 1 1 0 -2 -4 1 4 1 1 -1 -1 1 1 -0 0 -1 -1 -2 -2 -1 -1 -1 0 0 -1 -2 -2 0 -2 -4 -1 -1 1 -2 -1 1 1 0 -1 -2
1 -1 2 1 1 3 2 -0 -1 -1 -2 0 1 1 1 -1 1 1 -0 -1 1 -0 -1 -0 -1 -0 -1 -1 -1 -1 -0 -0 0 -0 -3 -3 -1 -4 -2 1 1 1 -1 -1 -2
-4 1 0 2 -0 3 4 -2 0 0 1 -2 -0 1 1 -1 -0 0 -1 -2 -0 0 0 -2 -0 1 2 0 0 -0 -1 -1 -1 -2 -3 -6 -4 0 0 -1 -1 -3 -2 -2 -2
-1 -2 3 2 -0 -0 5 4 -1 -0 -3 1 -1 1 2 -2 -0 -1 -0 -1 -1 -2 -1 0 -1 -2 -1 -1 -1 -1 -1 -1 -1 -2 -1 -3 -8 -1 -1 1 0 -0 -1 -1 -1
3 0 -2 4 2 -2 3 5 2 -1 -4 -1 1 -0 1 -1 -1 -1 -1 -0 -0 -0 0 -2 -3 -1 -1 -1 -1 -0 -0 -1 -0 0 1 -2 0 1 -1 -1 -1 -1 -1 -2 -2
2 3 0 -1 2 3 -1 6 4 -2 -13 -1 -0 -1 0 1 -1 -1 0 -0 0 0 -0 0 -0 -0 0 -0 0 1 -0 2 1 0 -1 -1 1 0 -2 -1 -2 -1 -1 -1 -1
2 0 5 -2 2 3 3 4 4 -3 -2 0 -1 -1 2 0 0 -0 -0 1 -2 -1 -1 -1 -1 -0 1 0 -0 -0 -2 -2 -4 -1 -2 1 2 -2 -0 -1 0 -1 -2 -2 -3
1 2 4 4 1 3 3 5 5 -1 -0 -2 2 0 -1 1 0 -1 -0 1 3 0 -0 -1 0 -1 -0 0 0 -0 -2 -2 -2 -1 -2 -1 -4 -0 -1 -1 -1 -1 -0 -2 -1
4 1 -1 7 4 4 4 2 -7 -1 -0 -2 1 2 -0 -0 2 1 -1 -0 -2 1 1 -1 -0 1 0 -0 -0 0 -1 -1 -1 0 -0 -0 -5 -2 -0 -2 -2 -1 -1 -0 -4
-1 2 3 4 4 6 5 -7 0 4 -2 0 -1 0 1 -1 -1 1 -1 -1 1 0 -0 -0 -0 0 1 0 -1 -0 0 -2 -1 -3 -1 -2 -5 -9 -3 -2 -3 -4 -6 -3 -2
14 -2 -0 4 4 6 -7 -7 -2 5 4 -0 -1 -1 -2 -1 -1 -1 1 -1 0 0 0 -1 1 -1 1 -1 -0 -0 -2 -1 -1 -1 -2 -1 -12 -4 -4 -3 -3 -2 2 1 -1
21 0 -1 4 3 -3 -4 -4 1 -1 4 -0 1 2 -0 1 -1 -1 -2 -1 -2 -0 -1 -1 0 -1 1 0 1 0 -1 1 -3 -1 1 -1 -25 -3 -3 -2 -1 -1 1 7 -4
19 13 -1 2 -13 -5 -1 -2 0 2 2 1 1 1 2 -2 -3 -2 0 -0 -2 -0 2 -1 -1 -0 0 1 -0 -2 -0 1 -2 3 -5 -2 -11 -2 -2 0 2 1 -1 -2 0
26 18 10 -8 -8 3 5 -1 1 1 1 2 -1 2 3 -0 -0 -2 -3 -0 1 -1 -1 -0 -2 -3 -5 -1 -1 -3 1 2 4 1 -1 -23 -10 2 6 9 6 -0 2 -1 -0
9 3 -14 -19 -21 2 3 1 5 -6 2 2 2 -2 1 -1 2 -3 -2 -0 -0 -1 -2 -3 -3 -2 3 1 -0 -5 -1 2 -1 5 -3 -6 -9 -2 9 -1 -5 -5 -2 -2 -2
-20 -7 3 3 7 8 5 -6 2 0 -1 -5 -4 3 1 -2 6 -7 2 -1 -2 -2 2 -2 -3 -2 -10 5 3 -11 1 4 4 -2 -13 5 -27 20 1 2 -3 -6 -3 -3 -3
14 10 16 -2 3 1 -17 7 9 7 3 2 7 8 -3 5 3 -1 1 2 2 1 1 0 -1 -1 -7 -1 0 -7 -2 -1 -2 0 4 -7 -1 2 -3 -3 -6 -1 -2 -2 -1
Height
3115 3113 3110 3107 3105 3103 3100 3098 3096 3093 3091 3089 3088 3086 3084 3083 3082 3080 3080 3079 3078 3077 3077 3077 3077 3078 3079 3080 3082 3084 3086 3085 3087 3089 3089 3091 3092 3095 3097 3099 3100 3101 3102 3103 3104
3113 3111 3108 3105 3103 3100 3097 3094 3092 3090 3089 3087 3085 3083 3081 3080 3079 3077 3077 3075 3075 3074 3075 3074 3075 3076 3077 3078 3079 3081 3082 3082 3083 3085 3086 3088 3089 3091 3093 3093 3095 3096 3097 3099 3098
3111 3109 3106 3103 3100 3098 3095 3093 3091 3088 3086 3085 3082 3081 3079 3077 3076 3075 3074 3073 3073 3072 3072 3072 3073 3074 3075 3076 3077 3078 3079 3079 3080 3082 3084 3085 3086 3087 3088 3089 3090 3092 3092 3092 3093
3109 3106 3103 3101 3098 3095 3093 3090 3088 3086 3084 3083 3081 3079 3077 3075 3077 3073 3072 3071 3071 3071 3071 3071 3071 3071 3072 3074 3074 3075 3075 3076 3077 3078 3080 3081 3082 3082 3084 3085 3087 3089 3090 3089 3089
3107 3104 3101 3098 3096 3093 3091 3089 3086 3084 3082 3081 3079 3077 3075 3073 3073 3072 3071 3070 3071 3070 3070 3070 3070 3070 3070 3071 3072 3072 3073 3073 3074 3075 3076 3077 3078 3079 3081 3081 3084 3085 3086 3086 3085
3104 3101 3098 3095 3093 3091 3089 3087 3085 3083 3080 3078 3076 3074 3073 3072 3071 3071 3069 3069 3069 3069 3069 3069 3069 3068 3068 3068 3069 3069 3070 3071 3071 3072 3073 3074 3075 3076 3078 3078 3080 3081 3081 3081 3081
3099 3098 3095 3092 3091 3089 3087 3085 3083 3080 3078 3075 3073 3071 3070 3071 3070 3070 3068 3067 3067 3067 3067 3067 3067 3067 3067 3067 3067 3067 3068 3068 3069 3070 3070 3071 3072 3072 3073 3075 3076 3075 3076 3076 3075
3095 3093 3091 3090 3088 3087 3084 3081 3079 3078 3075 3073 3071 3069 3068 3068 3069 3069 3067 3067 3067 3066 3065 3065 3065 3065 3065 3065 3065 3066 3067 3067 3067 3067 3068 3069 3069 3068 3069 3070 3070 3070 3069 3069 3069
3090 3088 3087 3086 3084 3082 3080 3078 3077 3075 3073 3071 3069 3068 3066 3066 3067 3068 3067 3066 3066 3065 3064 3064 3064 3064 3064 3064 3065 3064 3064 3065 3066 3065 3065 3066 3066 3066 3065 3064 3064 3065 3064 3063 3063
3085 3084 3082 3081 3080 3078 3077 3076 3073 3072 3070 3068 3066 3068 3066 3065 3065 3065 3065 3065 3064 3063 3063 3063 3062 3062 3063 3063 3063 3063 3063 3063 3063 3063 3062 3062 3060 3062 3060 3057 3058 3058 3058 3058 3058
3080 3079 3078 3077 3076 3074 3074 3072 3073 3070 3066 3065 3064 3062 3062 3062 3063 3063 3062 3062 3062 3062 3061 3061 3061 3061 3061 3061 3061 3062 3062 3061 3061 3059 3058 3056 3054 3054 3052 3052 3052 3053 3055 3055 3054
3075 3074 3074 3073 3071 3070 3069 3068 3066 3066 3062 3060 3058 3057 3058 3059 3060 3060 3061 3061 3059 3059 3059 3060 3059 3058 3058 3059 3060 3060 3059 3059 3057 3056 3054 3051 3049 3045 3043 3044 3047 3050 3051 3051 3050
3069 3069 3068 3068 3066 3066 3065 3065 3062 3061 3058 3054 3053 3054 3056 3058 3057 3057 3059 3058 3057 3056 3056 3057 3058 3057 3057 3058 3058 3057 3057 3056 3056 3054 3051 3048 3043 3041 3041 3042 3045 3047 3047 3047 3047
3061 3062 3063 3062 3064 3061 3061 3061 3059 3057 3055 3051 3049 3051 3053 3054 3055 3055 3055 3057 3055 3054 3054 3054 3054 3055 3056 3056 3056 3056 3054 3054 3053 3052 3051 3050 3046 3039 3039 3040 3041 3042 3043 3043 3042
3052 3054 3056 3056 3056 3057 3058 3056 3056 3056 3056 3047 3045 3047 3049 3052 3053 3052 3052 3051 3052 3052 3054 3052 3052 3052 3053 3053 3054 3054 3052 3051 3050 3048 3047 3045 3047 3035 3036 3037 3039 3039 3039 3038 3037
3044 3045 3048 3050 3050 3051 3052 3052 3053 3055 3047 3042 3041 3042 3046 3047 3048 3048 3048 3049 3048 3047 3048 3048 3049 3050 3050 3051 3051 3051 3050 3048 3045 3045 3046 3043 3045 3034 3033 3034 3035 3036 3035 3033 3032
3034 3037 3039 3042 3044 3045 3046 3049 3050 3044 3041 3039 3037 3039 3042 3043 3044 3044 3044 3044 3045 3045 3044 3045 3045 3046 3047 3048 3049 3049 3049 3047 3047 3045 3043 3042 3042 3029 3030 3031 3032 3032 3031 3030 3028
3024 3028 3030 3032 3036 3038 3040 3044 3040 3033 3032 3033 3034 3036 3038 3040 3040 3040 3041 3040 3039 3039 3040 3041 3043 3044 3044 3046 3047 3046 3048 3048 3049 3047 3044 3040 3033 3028 3026 3027 3028 3028 3027 3025 3023
3014 3017 3019 3024 3027 3031 3034 3033 3029 3026 3028 3029 3032 3032 3034 3035 3038 3036 3036 3036 3035 3037 3039 3038 3040 3040 3042 3043 3046 3044 3045 3047 3046 3046 3045 3035 3028 3026 3024 3024 3025 3024 3022 3020 3018
3003 3006 3009 3013 3017 3021 3023 3019 3022 3021 3022 3025 3027 3029 3028 3029 3033 3034 3032 3032 3031 3033 3035 3036 3038 3038 3039 3040 3041 3042 3044 3045 3045 3048 3044 3033 3027 3018 3020 3021 3021 3019 3018 3015 3011
2992 2994 2995 3003 3008 3010 3007 3010 3014 3017 3018 3021 3022 3023 3025 3026 3029 3031 3030 3030 3030 3031 3032 3034 3035 3037 3037 3035 3035 3038 3038 3040 3042 3043 3041 3039 3022 3017 3016 3016 3015 3014 3013 3010 3005
2980 2982 2984 2992 2999 2996 2996 3001 3007 3009 3012 3013 3016 3018 3020 3022 3023 3027 3026 3026 3027 3029 3030 3032 3032 3032 3033 3032 3033 3033 3033 3035 3036 3037 3037 3037 3016 3010 3012 3013 3012 3011 3009 3006 2999
2971 2971 2973 2981 2983 2983 2988 2993 2998 3001 3005 3007 3009 3011 3013 3017 3020 3020 3022 3023 3025 3027 3027 3028 3029 3030 3029 3032 3029 3028 3028 3029 3030 3031 3027 3031 3011 3008 3008 3007 3007 3004 3001 2995 2989
2961 2960 2963 2966 2971 2975 2981 2984 2989 2993 2997 3000 3002 3005 3008 3010 3012 3014 3017 3020 3021 3022 3024 3025 3024 3025 3024 3024 3025 3025 3024 3024 3025 3023 3016 3006 3002 3006 3005 3003 3000 2996 2993 2987 2982
2949 2947 2948 2951 2957 2964 2974 2976 2978 2983 2989 2992 2995 2998 3002 3005 3006 3008 3012 3014 3016 3017 3018 3021 3019 3019 3019 3018 3017 3017 3016 3016 3013 3013 3011 2995 2997 2998 3000 2996 2992 2988 2984 2979 2974
2937 2940 2940 2946 2952 2958 2964 2965 2969 2974 2981 2984 2986 2992 2996 3000 3001 3002 3006 3008 3010 3011 3013 3014 3014 3013 3013 3012 3009 3005 3003 3002 3003 3003 2998 2994 2989 2994 2992 2989 2985 2983 2977 2972 2966
2924 2931 2936 2937 2943 2950 2950 2954 2961 2969 2975 2979 2985 2987 2990 2996 2996 2999 3002 3004 3005 3006 3007 3008 3008 3009 3008 3007 3003 2997 2988 2989 2992 2994 2993 2990 2988 2986 2985 2982 2978 2975 2971 2965 2959